Regional Weather Roundup
Issued by NWS

Home | Current Version | Previous Version | Graphics & Text | Print | Product List | Glossary On
Versions: 1 2 3 4 5 6 7 8 9 10 11 12 13 14 15 16 17 18 19 20 21 22 23 24 25 26 27 28 29 30 31 32 33 34 35 36 37 38 39 40 41 42 43 44 45 46 47 48 49 50
000
ASUS43 KMPX 311601
RWRMN
WEATHER ROUNDUP FOR MINNESOTA
NATIONAL WEATHER SERVICE TWIN CITIES/CHANHASSEN MN
1100 AM CDT MON AUG 31 2015


NOTE: "FAIR" INDICATES FEW OR NO CLOUDS BELOW 12,000 FEET WITH NO
SIGNIFICANT WEATHER AND/OR OBSTRUCTIONS TO VISIBILITY. N/A MEANS
CURRENT SKY AND/OR WEATHER CONDITIONS ARE NOT AVAILABLE.

MNZ060>063-068>070-311700-
   Twin Cities Metro

CITY           SKY/WX    TMP DP  RH WIND       PRES   REMARKS
TWIN CITIES    PTSUNNY   76  68  76 S13       29.94S
ST PAUL        CLOUDY    73  69  87 S13       29.95R
CRYSTAL        PTSUNNY   77  68  73 S12       29.92R
BLAINE         PTSUNNY   79  72  78 S14G20    29.93S
LAKEVILLE      PTSUNNY   73  70  88 S9        29.95S
EDEN PRAIRIE   PTSUNNY   76  69  79 SW14G20   29.93S
SOUTH ST PAUL  MOSUNNY   73  68  83 SE6       29.95S HAZE
LAKE ELMO      CLOUDY    72  68  88 S12       29.97S
$$
MNZ001>005-007-008-013>017-022>024-027-028-311700-
   Northwest Minnesota

CITY           SKY/WX    TMP DP  RH WIND       PRES   REMARKS
BEMIDJI        SUNNY     76  60  57 S14       29.75S
HALLOCK        PTSUNNY   73  68  83 NW8       29.70R
ROSEAU         CLOUDY    70  63  78 S7        29.70S
WARROAD        CLOUDY    70  64  83 SW8       29.72R
THIEF RVR FALL CLOUDY   N/A N/A N/A SW10      29.71R
CROOKSTON      CLOUDY    72  64  78 SW13      29.72R
FOSSTON        SUNNY     75  59  57 SW22      29.74R
DETROIT LAKES  SUNNY     77  59  53 S12G18    29.79R
MOORHEAD       SUNNY     77  63  61 S13       29.75R
PARK RAPIDS    SUNNY     77  59  53 S17       29.78F
MAHNOMEN       FAIR      76  61  59 SW15G23   29.75R
$$
MNZ006-009>011-018-025>026-311700-
   North Central Minnesota

CITY           SKY/WX    TMP DP  RH WIND       PRES   REMARKS
BAUDETTE       MOSUNNY   76  61  59 SW13G22   29.71S
FLAG ISLAND    CLOUDY    70  63  78 S9        29.68R
INTL FALLS     MOSUNNY   76  62  62 S12G17    29.75F
WASKISH        MOSUNNY   75  63  64 S10G17    29.73S
BIG FORK       SUNNY     75  63  64 S8        29.79S
LONGVILLE      SUNNY     73  64  73 S13       29.82S
GRAND RAPIDS     N/A     72  63  73 S12       29.84R
CRANE LAKE     SUNNY     72  61  68 S10       29.81R
COOK           SUNNY     73  63  68 S9        29.83R
WALKER         FAIR      73  60  65 S12G17    29.78F
$$
MNZ012-019>021-037-311700-
   Northeast Minnesota

CITY           SKY/WX    TMP DP  RH WIND       PRES   REMARKS
DULUTH         MOSUNNY   72  63  73 S16       29.90R
ELY            SUNNY     73  57  56 SW10G17   29.84F
HIBBING        SUNNY     72  63  73 VRB7G17   29.85F
EVELETH        SUNNY     72  63  73 SW12G17   29.87S
DULUTH HARBOR  SUNNY     75  66  73 S15       29.88F
TWO HARBORS    SUNNY     75  66  73 S13G18    29.88S
SILVER BAY     SUNNY     73  64  73 S14       29.88S
GRAND MARAIS     N/A     57  56  96 W5        29.89S
G MARAIS ARPRT PTSUNNY   64  59  82 S10       29.93R
$$
MNZ029>031-032-039>041-046>048-054>057-064-311700-
   West Central Minnesota

CITY           SKY/WX    TMP DP  RH WIND       PRES   REMARKS
FERGUS FALLS   SUNNY     75  63  64 S13       29.77R
WHEATON        SUNNY     75  64  69 S10       29.79R
MORRIS         SUNNY     75  66  73 S18       29.80S
ALEXANDRIA     SUNNY     74  64  71 S21G29    29.85R
ELBOW LAKE     FAIR      74  65  73 S17       29.79S
WADENA         SUNNY     75  63  64 S13       29.80F
GLENWOOD       SUNNY     75  66  73 S16G22    29.86R
APPLETON       SUNNY     79  64  61 S9G21     29.81S
BENSON         SUNNY     75  66  73 SW9G18    29.83R
ORTONVILLE     SUNNY     77  63  61 S9        29.79S
MADISON        SUNNY     77  64  65 S14       29.82R
WILLMAR        FAIR      75  70  83 S7G20     29.87F
$$
MNZ033>034-036-042>043-049>051-058-059-311700-
   Central Minnesota

CITY           SKY/WX    TMP DP  RH WIND       PRES   REMARKS
ST CLOUD       MOSUNNY   74  67  78 S15       29.89S
SAUK CENTRE    FAIR      74  66  77 S17       29.85S
PAYNESVILLE    SUNNY     73  67  79 SE14G21   29.88S
AITKIN         SUNNY     73  66  78 S10G20    29.84S
PINE RIVER     SUNNY     73  64  73 S10G17    29.86S
BRAINERD       SUNNY     74  64  71 S15G23    29.84F
STAPLES        SUNNY     73  63  68 S14       29.82F
LONG PRAIRIE   FAIR      73  64  73 S14       29.85R
LITTLE FALLS   SUNNY     73  64  73 S12       29.86S
LITCHFIELD     SUNNY     75  72  88 S7        29.90S
BUFFALO        PTSUNNY   74  67  77 S13G18    29.93S
MAPLE LAKE     SUNNY     75  70  83 S10G18    29.91F
$$
MNZ037-044-045-052-053-311700-
   East Central Minnesota

CITY           SKY/WX    TMP DP  RH WIND       PRES   REMARKS
PRINCETON      MOSUNNY   77  68  73 S13G22    29.91S
MORA           PTSUNNY   73  64  73 S12G17    29.92S
CAMBRIDGE      MOSUNNY   79  64  61 S10G22    29.90S
RUSH CITY      CLOUDY    74  68  80 S9        29.92S
MOOSE LAKE     MOSUNNY   72  64  78 S9G21     29.88S
HINCKLEY       CLOUDY    72  68  88 S13G18    29.92S
CLOQUET        SUNNY     72  63  73 S10       29.89F
MCGREGOR       SUNNY     73  64  73 S14       29.87F
$$
MNZ071>073-080-081-089-090-097-098-311700-
   Southwest Minnesota

CITY           SKY/WX    TMP DP  RH WIND       PRES   REMARKS
MONTEVIDEO     SUNNY     79  73  83 SW15G24   29.85R
GRANITE FALLS  SUNNY     75  69  79 S15G23    29.86F
CANBY          SUNNY     77  64  65 S10G24    29.83R
MARSHALL       SUNNY     75  64  69 S23G31    29.87F
REDWOOD FALLS  SUNNY     75  68  78 S15G24    29.89S
OLIVIA         SUNNY     72  64  78 S15G21    29.88S
PIPESTONE      SUNNY     73  66  78 SW17G23   29.91S
WINDOM         SUNNY     75  68  78 S12       29.94R
WORTHINGTON    CLOUDY    72  66  83 S17G24    29.95R
JACKSON        MOSUNNY   73  70  88 S17       29.96R FOG
TRACY          SUNNY     75  68  78 SW17G25   29.90R
SLAYTON        SUNNY     72  68  87 S21       29.93S FOG
$$
MNZ065>067-074>077-082>085-091>093-311700-
   South Central Minnesota

CITY           SKY/WX    TMP DP  RH WIND       PRES   REMARKS
MANKATO        CLOUDY    72  68  88 S8        29.95S
NEW ULM        SUNNY     73  70  88 S14       29.92S
ST JAMES       MOSUNNY   73  70  88 S15       29.95R
FAIRMONT       MOSUNNY   73  66  78 S14       29.95S
GLENCOE        PTSUNNY   74  71  88 S10G22    29.92S
FARIBAULT      PTSUNNY   73  70  88 S14       29.96F
OWATONNA       SUNNY     73  68  83 S12G18    29.97S
WASECA         MOSUNNY   73  68  83 S10       29.97S
ALBERT LEA     SUNNY     75  70  83 S6        29.98S
$$
MNZ078>079-086>088-094>096-311700-
   Southeast Minnesota

CITY           SKY/WX    TMP DP  RH WIND       PRES   REMARKS
ROCHESTER      SUNNY     74  69  85 S14       30.01S
RED WING       CLOUDY    73  68  83 S3        29.97S
STANTON        MOSUNNY   75  69  79 S9        29.95S
DODGE CENTER   MOSUNNY   73  70  88 S12       29.99F
WINONA         CLOUDY    73  68  83 CALM      30.01S
AUSTIN         SUNNY     73  70  88 S12       30.00R
PRESTON        MOSUNNY   73  67  82 S10       30.02F
$$
ABBREVIATIONS USED IN REMARKS
   TC - TEMPERATURES IN CELSIUS
  WCI - WIND CHILL INDEX
   HX - HEAT INDEX
  VSB - VISIBILITY
$$


USA.gov is the U.S. government's official web portal to all federal, state and local government web resources and services.